Hourly Weather Kistendey

Today, 29 July, Thursday

Time Temperature Precipitation Wind Pressure Humidity
00:00 +20°C° 0 mm 3 mps 743 mmHg 70%
01:00 +20°C° 0 mm 3 mps 743 mmHg 72%
02:00 +20°C° 0 mm 3 mps 742 mmHg 73%
03:00 +20°C° 0 mm 3 mps 742 mmHg 70%
04:00 +20°C° 0 mm 4 mps 742 mmHg 65%
05:00 +21°C° 0 mm 4 mps 741 mmHg 60%
06:00 +21°C° 0 mm 4 mps 741 mmHg 56%
07:00 +21°C° 1.8 mm 5 mps 741 mmHg 65%
08:00 +20°C° 1.8 mm 5 mps 741 mmHg 75%
09:00 +19°C° 0 mm 5 mps 741 mmHg 87%
10:00 +22°C° 0.1 mm 5 mps 741 mmHg 76%
11:00 +25°C° 0.1 mm 5 mps 741 mmHg 64%
12:00 +28°C° 0.1 mm 6 mps 740 mmHg 53%
13:00 +29°C° 0 mm 5 mps 740 mmHg 52%
14:00 +29°C° 0 mm 5 mps 740 mmHg 51%
15:00 +30°C° 0 mm 4 mps 739 mmHg 49%
16:00 +28°C° 0.4 mm 3 mps 739 mmHg 55%
17:00 +27°C° 0.4 mm 3 mps 739 mmHg 61%
18:00 +26°C° 0.4 mm 2 mps 739 mmHg 67%
19:00 +25°C° 0 mm 2 mps 739 mmHg 70%
20:00 +24°C° 0 mm 2 mps 739 mmHg 72%
21:00 +23°C° 0 mm 2 mps 739 mmHg 75%
22:00 +23°C° 0 mm 2 mps 739 mmHg 75%
23:00 +21°C° 0 mm 2 mps 739 mmHg 74%

Tomorrow, 30 July, Friday

Time Temperature Precipitation Wind Pressure Humidity
00:00 +21°C° 0 mm 2 mps 739 mmHg 74%
01:00 +21°C° 0 mm 2 mps 739 mmHg 74%
02:00 +21°C° 0 mm 2 mps 739 mmHg 73%
03:00 +20°C° 0 mm 2 mps 739 mmHg 73%
04:00 +21°C° 0 mm 2 mps 739 mmHg 73%
05:00 +21°C° 0 mm 2 mps 739 mmHg 72%
06:00 +23°C° 0 mm 2 mps 739 mmHg 72%
07:00 +25°C° 0 mm 2 mps 739 mmHg 65%
08:00 +27°C° 0 mm 2 mps 739 mmHg 58%
09:00 +29°C° 0 mm 2 mps 739 mmHg 51%
10:00 +30°C° 0 mm 2 mps 739 mmHg 46%
11:00 +31°C° 0 mm 3 mps 739 mmHg 42%
12:00 +33°C° 0 mm 3 mps 739 mmHg 38%
13:00 +33°C° 0 mm 3 mps 739 mmHg 39%
14:00 +32°C° 0 mm 4 mps 738 mmHg 41%
15:00 +32°C° 0 mm 4 mps 738 mmHg 43%
16:00 +30°C° 0.1 mm 4 mps 738 mmHg 47%
17:00 +30°C° 0.1 mm 4 mps 737 mmHg 50%
18:00 +29°C° 0.1 mm 5 mps 737 mmHg 54%
19:00 +26°C° 1.6 mm 4 mps 737 mmHg 66%
20:00 +23°C° 1.6 mm 4 mps 738 mmHg 78%
21:00 +20°C° 1.6 mm 4 mps 738 mmHg 90%
22:00 +20°C° 0.6 mm 3 mps 738 mmHg 91%
23:00 +20°C° 0.6 mm 3 mps 738 mmHg 92%

Day after tomorrow, 31 July, Saturday

Time Temperature Precipitation Wind Pressure Humidity
00:00 +20°C° 0.6 mm 2 mps 738 mmHg 92%
01:00 +20°C° 0.5 mm 2 mps 738 mmHg 93%
02:00 +20°C° 0.5 mm 2 mps 738 mmHg 93%
03:00 +20°C° 0.5 mm 2 mps 737 mmHg 94%
04:00 +20°C° 0 mm 2 mps 738 mmHg 93%
05:00 +21°C° 0 mm 1 mps 738 mmHg 92%
06:00 +22°C° 0 mm 1 mps 738 mmHg 91%
07:00 +23°C° 0 mm 2 mps 738 mmHg 83%
08:00 +25°C° 0 mm 2 mps 739 mmHg 75%
09:00 +26°C° 0 mm 3 mps 739 mmHg 67%
10:00 +27°C° 0 mm 3 mps 739 mmHg 60%
11:00 +28°C° 0 mm 4 mps 739 mmHg 52%
12:00 +30°C° 0 mm 5 mps 740 mmHg 45%
13:00 +30°C° 0 mm 5 mps 740 mmHg 43%
14:00 +30°C° 0 mm 5 mps 740 mmHg 41%
15:00 +30°C° 0 mm 4 mps 740 mmHg 39%
16:00 +30°C° 0 mm 4 mps 740 mmHg 42%
17:00 +30°C° 0 mm 3 mps 740 mmHg 44%
18:00 +29°C° 0 mm 3 mps 740 mmHg 47%
19:00 +27°C° 0 mm 2 mps 740 mmHg 50%
20:00 +25°C° 0 mm 2 mps 741 mmHg 54%
21:00 +24°C° 0 mm 2 mps 741 mmHg 57%
22:00 +23°C° 0 mm 2 mps 741 mmHg 56%
23:00 +23°C° 0 mm 2 mps 741 mmHg 55%

1 August, Sunday

Time Temperature Precipitation Wind Pressure Humidity
00:00 +21°C° 0 mm 2 mps 741 mmHg 54%
01:00 +21°C° 0 mm 2 mps 741 mmHg 57%
02:00 +20°C° 0 mm 2 mps 741 mmHg 61%
03:00 +20°C° 0 mm 3 mps 742 mmHg 64%
04:00 +20°C° 0 mm 3 mps 742 mmHg 65%
05:00 +21°C° 0 mm 2 mps 742 mmHg 66%
06:00 +21°C° 0 mm 2 mps 742 mmHg 67%
07:00 +24°C° 0 mm 2 mps 743 mmHg 60%
08:00 +26°C° 0 mm 3 mps 743 mmHg 53%
09:00 +29°C° 0 mm 3 mps 743 mmHg 46%
10:00 +30°C° 0 mm 3 mps 743 mmHg 42%
11:00 +31°C° 0 mm 3 mps 743 mmHg 38%
12:00 +33°C° 0 mm 3 mps 743 mmHg 34%
13:00 +34°C° 0 mm 3 mps 742 mmHg 32%
14:00 +34°C° 0 mm 4 mps 742 mmHg 31%
15:00 +34°C° 0 mm 4 mps 742 mmHg 29%
16:00 +34°C° 0 mm 3 mps 742 mmHg 33%
17:00 +32°C° 0 mm 2 mps 742 mmHg 37%
18:00 +31°C° 0 mm 2 mps 742 mmHg 41%
19:00 +29°C° 0 mm 2 mps 742 mmHg 43%
20:00 +28°C° 0 mm 2 mps 742 mmHg 44%
21:00 +26°C° 0 mm 2 mps 742 mmHg 46%
22:00 +25°C° 0 mm 3 mps 742 mmHg 47%
23:00 +25°C° 0 mm 3 mps 742 mmHg 48%

2 August, Monday

Time Temperature Precipitation Wind Pressure Humidity
00:00 +24°C° 0 mm 3 mps 742 mmHg 49%
01:00 +24°C° 0 mm 3 mps 742 mmHg 54%
02:00 +24°C° 0 mm 3 mps 742 mmHg 58%
03:00 +22°C° 0 mm 3 mps 741 mmHg 63%
04:00 +22°C° 0.3 mm 3 mps 742 mmHg 66%
05:00 +22°C° 0.3 mm 3 mps 742 mmHg 69%
06:00 +24°C° 0.3 mm 3 mps 742 mmHg 73%
07:00 +26°C° 0.1 mm 3 mps 741 mmHg 64%
08:00 +28°C° 0.1 mm 3 mps 741 mmHg 55%
09:00 +30°C° 0.1 mm 3 mps 741 mmHg 46%
10:00 +33°C° 0 mm 3 mps 741 mmHg 42%
11:00 +34°C° 0 mm 3 mps 741 mmHg 37%
12:00 +36°C° 0 mm 3 mps 741 mmHg 32%
13:00 +36°C° 0 mm 3 mps 741 mmHg 29%
14:00 +37°C° 0 mm 3 mps 740 mmHg 27%
15:00 +38°C° 0 mm 3 mps 740 mmHg 24%
16:00 +36°C° 0 mm 3 mps 740 mmHg 29%
17:00 +35°C° 0 mm 2 mps 740 mmHg 35%
18:00 +32°C° 0 mm 2 mps 739 mmHg 40%
19:00 +31°C° 0 mm 2 mps 739 mmHg 41%
20:00 +29°C° 0 mm 2 mps 739 mmHg 42%
21:00 +28°C° 0 mm 2 mps 739 mmHg 44%
22:00 +27°C° 0 mm 2 mps 739 mmHg 42%
23:00 +27°C° 0 mm 2 mps 739 mmHg 40%

3 August, Tuesday

Time Temperature Precipitation Wind Pressure Humidity
00:00 +26°C° 0 mm 3 mps 739 mmHg 38%
01:00 +26°C° 0 mm 3 mps 739 mmHg 38%
02:00 +25°C° 0 mm 3 mps 738 mmHg 38%
03:00 +25°C° 0 mm 3 mps 738 mmHg 37%
04:00 +25°C° 0 mm 3 mps 738 mmHg 40%
05:00 +25°C° 0 mm 3 mps 739 mmHg 42%
06:00 +25°C° 0 mm 3 mps 739 mmHg 44%
07:00 +27°C° 0 mm 3 mps 739 mmHg 42%
08:00 +29°C° 0 mm 3 mps 739 mmHg 40%
09:00 +30°C° 0 mm 3 mps 739 mmHg 38%
10:00 +33°C° 0 mm 3 mps 739 mmHg 34%
11:00 +34°C° 0 mm 4 mps 739 mmHg 31%
12:00 +36°C° 0 mm 5 mps 739 mmHg 28%
13:00 +36°C° 0 mm 6 mps 739 mmHg 30%
14:00 +35°C° 0 mm 6 mps 738 mmHg 32%
15:00 +35°C° 0 mm 7 mps 738 mmHg 35%
16:00 +33°C° 0.2 mm 5 mps 738 mmHg 43%
17:00 +30°C° 0.2 mm 3 mps 738 mmHg 52%
18:00 +28°C° 0.2 mm 1 mps 738 mmHg 61%
19:00 +27°C° 0.4 mm 2 mps 739 mmHg 68%
20:00 +25°C° 0.4 mm 2 mps 740 mmHg 74%
21:00 +23°C° 0.4 mm 2 mps 741 mmHg 81%
22:00 +21°C° 0.1 mm 3 mps 741 mmHg 82%
23:00 +20°C° 0.1 mm 3 mps 741 mmHg 84%
Show more